Wind_Speed
27 28 26 28 28 27 29 26 26 26 27 31 35 33 38 40 37 36 32 78 81 81 77 77 76 70 65 65 66 65 60 57 52 55 49 42 30 27 33 25 25 24 22 21
26 26 23 27 29 30 29 30 28 29 27 31 35 38 39 42 43 33 34 29 66 83 83 80 76 72 68 65 66 61 59 60 54 67 47 50 40 34 28 27 28 25 23 19
26 20 21 24 25 27 29 34 35 35 33 33 38 37 38 41 40 40 33 29 36 66 85 82 77 69 65 68 69 64 55 56 54 48 48 50 41 34 27 27 27 25 22 22
23 22 22 24 25 29 37 34 35 38 40 36 32 42 35 37 35 36 30 29 31 38 79 88 81 69 67 73 73 69 58 56 55 60 64 49 39 31 25 31 26 23 24 26
25 24 24 26 28 30 34 32 36 38 39 37 39 42 28 31 34 32 33 34 28 32 49 74 90 79 74 73 72 70 57 55 60 51 52 36 41 43 37 31 25 25 26 28
28 24 22 26 30 30 28 30 31 33 41 42 34 34 34 28 24 28 30 33 35 29 52 54 80 85 72 77 75 72 60 54 56 39 43 33 35 35 34 34 33 32 30 31
22 19 20 25 29 30 31 34 38 41 46 46 31 32 37 23 19 28 28 32 36 30 58 58 65 84 76 81 75 71 61 52 50 48 50 48 44 39 37 35 33 33 31 29
29 15 22 24 28 35 33 35 39 43 41 42 45 43 41 31 30 26 28 29 37 32 59 63 63 82 81 81 77 70 60 54 54 53 55 52 54 50 43 39 35 34 28 25
29 24 22 30 35 33 32 32 31 36 38 44 41 41 41 35 28 26 32 31 33 31 58 63 59 70 81 82 76 68 60 56 55 57 55 58 53 39 44 39 35 33 25 19
28 32 25 21 22 24 31 27 26 31 30 32 33 31 27 22 22 27 28 27 29 23 35 65 59 57 73 80 71 64 61 56 56 59 60 51 51 42 35 33 35 28 22 19
30 32 31 20 24 24 23 20 18 24 28 32 32 29 23 26 27 31 24 21 30 34 34 41 63 60 61 72 67 61 61 60 59 62 59 59 53 53 35 40 25 17 18 19
25 39 30 21 20 19 17 15 21 24 26 32 33 24 22 24 31 23 25 24 30 28 25 41 30 57 61 68 61 59 60 60 61 62 60 58 56 35 33 15 16 17 20 21
30 34 26 23 16 20 19 21 21 28 31 31 32 15 20 25 29 27 28 26 25 31 31 33 45 61 61 61 60 56 59 62 61 62 59 51 48 45 30 22 19 21 23 23
25 29 32 29 19 24 18 22 25 27 27 25 25 18 22 23 28 33 34 34 41 41 34 45 50 62 64 62 63 56 53 57 57 53 54 58 54 44 33 23 22 24 23 21
33 28 27 20 22 18 20 24 24 36 31 36 29 23 22 22 27 22 28 30 35 43 41 46 60 66 63 63 66 54 47 58 64 58 68 56 45 39 28 25 26 23 22 21
29 23 24 15 25 28 25 24 30 25 29 30 37 42 45 35 30 24 30 28 37 31 56 46 66 67 61 64 66 53 63 44 84 73 54 44 37 31 26 27 21 23 23 22
24 27 26 16 22 19 23 29 31 38 42 41 37 36 36 47 36 32 26 36 39 46 43 53 64 63 60 62 64 66 70 36 56 57 51 32 27 28 25 20 24 25 24 21
23 26 27 23 20 16 22 29 37 39 26 19 19 24 17 18 34 32 33 42 46 55 41 55 63 64 61 64 64 60 55 62 47 44 33 30 26 23 21 23 23 24 24 22
26 26 26 21 17 25 30 34 39 23 18 25 21 20 28 15 34 35 45 47 51 53 41 61 65 65 63 57 57 55 47 46 46 43 32 29 26 21 22 24 25 24 22 21
23 23 23 20 23 32 36 31 24 25 28 27 18 17 9 4 33 49 47 48 51 52 48 63 66 60 55 60 33 39 50 42 38 33 30 28 23 23 25 25 25 22 22 20
17 17 21 19 23 30 32 24 21 23 17 14 13 7 6 24 36 50 53 63 51 60 42 49 48 51 44 44 33 50 44 38 32 31 28 26 27 26 26 24 24 22 21 21
23 21 13 14 24 31 28 16 20 17 7 17 6 6 20 37 39 52 64 56 37 49 46 42 44 46 39 44 43 42 40 35 31 31 30 27 26 26 26 24 23 23 21 19
21 18 17 21 24 28 24 18 18 20 11 15 42 45 51 51 53 49 56 44 44 44 48 49 39 50 54 43 47 39 39 33 31 29 28 27 26 26 25 25 24 22 20 20
19 14 17 18 21 26 19 12 11 15 19 26 28 30 44 47 38 37 24 31 38 42 35 44 35 53 50 42 44 38 33 32 32 31 28 27 26 27 27 25 20 19 19 18
14 13 15 19 18 26 8 11 20 20 28 25 25 35 36 36 30 25 27 31 43 48 43 46 52 47 43 37 33 31 29 28 26 25 25 24 25 25 22 19 17 17 18 18
11 11 12 19 19 23 8 9 6 14 26 26 26 30 31 36 37 31 36 39 33 39 45 49 44 40 35 31 26 23 23 21 21 20 19 18 15 13 15 15 18 18 19 18
Wind_Direction
287 284 254 249 262 273 272 281 285 281 272 246 255 268 257 264 268 272 258 218 214 213 217 217 228 234 229 232 235 237 230 240 230 250 203 204 218 222 227 241 252 253 256 267
286 278 272 265 271 276 273 281 283 285 283 270 258 267 263 259 264 265 258 254 222 214 217 216 223 228 234 233 236 233 232 232 238 235 219 206 212 220 232 240 248 249 257 271
292 297 281 271 278 284 288 285 291 288 283 270 266 270 265 263 265 262 259 253 243 220 212 211 218 221 228 227 233 233 229 229 235 233 195 214 212 218 232 241 244 247 262 275
293 285 280 280 284 287 283 279 278 277 280 278 265 269 261 257 260 262 257 247 252 251 212 207 209 210 216 222 227 231 226 225 227 232 222 234 215 226 233 237 241 250 260 275
282 282 280 284 288 281 289 279 275 275 274 273 265 267 275 269 259 260 261 257 250 242 220 214 215 213 217 220 224 227 224 226 229 229 214 210 205 225 233 237 240 252 263 272
288 285 288 287 286 281 284 271 272 272 271 267 272 277 278 267 266 257 251 254 250 244 208 201 212 213 215 218 222 225 223 224 228 234 193 219 219 224 232 236 247 252 263 275
294 280 285 290 288 282 283 285 279 279 270 269 278 276 277 261 265 254 245 244 236 221 202 197 199 207 206 214 217 220 220 220 223 213 232 226 228 224 228 239 242 250 263 275
307 280 282 294 284 283 282 277 272 269 281 282 259 276 277 275 261 256 239 238 222 222 201 198 199 205 205 207 211 216 216 214 215 218 225 227 233 227 228 231 237 251 262 274
308 295 305 306 295 291 292 282 279 274 274 266 272 283 274 270 275 257 237 232 224 215 202 197 201 208 205 206 207 210 212 213 214 215 222 229 220 209 228 219 235 245 251 277
307 300 320 310 298 289 289 287 277 276 279 275 273 276 284 277 247 242 214 232 233 220 203 206 202 208 209 207 205 205 208 213 214 215 214 226 232 225 208 224 236 251 266 263
308 303 325 311 299 301 298 295 280 275 277 282 286 280 278 280 242 247 197 224 234 235 204 194 201 204 201 206 204 204 205 209 214 217 221 228 240 252 221 228 235 260 256 252
323 314 319 318 305 290 283 292 279 277 283 284 275 297 265 276 247 241 232 236 246 232 224 179 186 190 198 199 200 205 206 209 214 218 220 227 233 206 223 241 234 249 248 236
320 321 317 321 287 276 279 287 267 273 280 282 285 287 294 256 250 236 228 236 210 220 222 187 185 188 196 192 197 201 206 211 214 219 220 224 227 228 229 233 232 235 233 224
323 317 316 317 294 284 301 304 282 276 270 275 268 288 263 252 248 237 221 213 218 206 205 199 183 182 189 189 192 196 208 212 214 215 213 215 224 228 228 227 228 226 221 224
327 310 316 318 288 286 292 301 292 278 269 266 263 273 276 264 256 235 225 212 200 192 204 197 179 183 191 190 189 202 201 205 210 210 218 197 205 217 217 225 218 215 217 226
317 317 317 320 294 306 304 324 307 288 286 287 280 285 267 270 242 236 216 209 189 202 193 182 181 188 189 193 191 188 201 220 202 188 165 169 192 203 215 206 206 212 221 228
324 320 324 332 307 315 303 298 305 309 302 292 294 286 277 257 234 220 220 199 194 198 171 179 184 188 190 192 194 200 194 151 158 163 183 161 180 202 194 194 205 214 224 233
329 328 328 329 328 326 332 335 328 319 312 313 300 306 285 239 207 200 186 183 187 176 166 180 184 186 192 195 198 201 210 218 168 157 150 173 179 178 190 200 207 217 228 234
332 334 335 337 341 338 347 344 323 324 315 304 331 286 297 237 204 186 180 180 168 175 162 181 184 187 194 197 195 198 164 155 152 142 146 157 170 180 194 203 211 219 225 236
333 330 331 331 335 347 347 341 327 336 331 324 312 304 302 213 183 166 171 175 154 166 164 182 184 190 193 199 198 186 171 147 129 140 158 165 170 186 198 207 214 216 229 240
345 334 324 325 338 349 352 337 331 331 355 352 331 37 78 135 150 165 161 164 153 169 170 178 190 192 195 200 201 185 157 128 142 150 157 169 183 193 201 206 213 221 230 242
350 345 334 328 357 353 1 344 349 348 1 24 26 112 116 132 147 159 155 165 166 147 149 166 179 186 179 188 202 191 136 137 147 159 167 176 184 192 199 207 216 226 238 249
347 347 339 348 354 351 358 355 26 39 78 61 106 112 112 121 135 142 147 157 147 157 162 165 151 176 182 146 120 130 129 144 157 163 175 181 188 196 203 213 224 233 241 256
345 339 339 352 356 357 3 36 74 69 92 107 114 101 125 128 136 149 150 136 150 159 167 181 176 161 154 128 129 134 146 158 164 173 181 186 194 202 210 218 228 239 249 250
341 346 332 351 0 3 40 80 106 100 118 122 127 119 130 130 140 139 153 150 152 155 171 144 130 128 129 131 134 142 154 165 174 183 189 195 204 214 221 227 240 254 253 257
329 321 333 350 3 7 104 122 170 129 145 112 132 128 137 129 141 149 151 158 143 150 139 126 127 129 132 136 142 154 162 172 184 191 199 210 222 233 237 247 261 260 265 274
Height
5694 5690 5690 5692 5692 5692 5691 5691 5689 5691 5690 5687 5687 5688 5687 5689 5689 5689 5691 5700 5712 5725 5739 5749 5757 5768 5774 5778 5784 5793 5802 5807 5820 5821 5827 5846 5858 5865 5870 5869 5875 5877 5879 5879
5687 5684 5685 5684 5684 5683 5683 5683 5683 5682 5682 5679 5679 5677 5678 5679 5679 5681 5682 5683 5694 5707 5722 5734 5745 5756 5762 5772 5776 5788 5800 5805 5812 5821 5834 5843 5853 5857 5864 5866 5868 5873 5872 5874
5679 5682 5678 5677 5677 5676 5675 5672 5671 5670 5669 5668 5665 5666 5668 5670 5670 5670 5674 5675 5677 5689 5705 5717 5731 5744 5752 5761 5767 5776 5792 5803 5808 5819 5828 5834 5839 5845 5855 5858 5863 5866 5867 5869
5676 5673 5672 5670 5670 5668 5664 5665 5662 5659 5657 5656 5660 5651 5657 5657 5660 5662 5664 5665 5669 5672 5684 5700 5713 5730 5739 5747 5758 5766 5784 5795 5804 5811 5821 5828 5834 5843 5848 5851 5856 5860 5862 5864
5672 5667 5664 5663 5662 5658 5655 5655 5651 5650 5647 5645 5645 5644 5648 5650 5650 5652 5655 5658 5660 5661 5670 5680 5699 5717 5729 5735 5746 5756 5778 5786 5798 5805 5809 5817 5821 5834 5841 5846 5849 5853 5856 5856
5660 5658 5655 5654 5652 5649 5649 5644 5643 5642 5638 5633 5637 5638 5635 5639 5642 5643 5644 5645 5648 5653 5660 5667 5682 5703 5714 5725 5733 5745 5766 5778 5785 5792 5762 5806 5814 5827 5834 5840 5843 5846 5848 5850
5651 5650 5648 5646 5644 5641 5638 5636 5633 5629 5625 5623 5627 5624 5624 5629 5632 5632 5632 5631 5634 5640 5647 5658 5666 5686 5697 5710 5727 5737 5755 5766 5776 5789 5790 5804 5808 5816 5825 5832 5838 5840 5843 5845
5641 5644 5642 5642 5637 5630 5629 5628 5624 5619 5616 5615 5615 5611 5615 5619 5621 5624 5623 5621 5622 5628 5639 5647 5658 5673 5686 5700 5719 5733 5750 5761 5770 5781 5788 5797 5802 5811 5820 5826 5830 5833 5838 5839
5633 5633 5635 5631 5624 5622 5620 5615 5614 5610 5609 5603 5607 5606 5604 5606 5608 5610 5616 5615 5616 5617 5629 5636 5651 5666 5681 5695 5709 5725 5743 5752 5764 5774 5783 5781 5792 5796 5805 5816 5822 5828 5831 5832
5630 5620 5629 5623 5618 5615 5609 5608 5606 5603 5600 5596 5596 5597 5595 5598 5601 5602 5607 5612 5610 5613 5623 5632 5644 5659 5679 5693 5707 5721 5731 5745 5755 5766 5773 5775 5788 5791 5796 5807 5816 5821 5823 5827
5625 5619 5621 5614 5610 5608 5603 5600 5599 5598 5595 5590 5587 5589 5592 5591 5592 5596 5601 5607 5609 5609 5615 5625 5635 5651 5669 5686 5704 5717 5726 5735 5744 5752 5763 5774 5781 5788 5794 5803 5811 5815 5820 5823
5622 5614 5610 5610 5604 5601 5598 5596 5594 5591 5590 5583 5581 5578 5586 5583 5583 5587 5591 5600 5604 5609 5615 5617 5625 5646 5660 5677 5701 5711 5720 5730 5737 5745 5757 5770 5782 5783 5793 5795 5804 5812 5814 5817
5615 5610 5604 5604 5600 5596 5592 5590 5588 5584 5582 5577 5576 5573 5576 5574 5575 5579 5585 5592 5600 5606 5610 5612 5619 5635 5652 5675 5692 5706 5716 5721 5730 5739 5754 5763 5772 5781 5788 5796 5804 5808 5811 5812
5610 5606 5601 5597 5594 5589 5587 5585 5580 5575 5570 5570 5567 5566 5568 5568 5567 5569 5572 5579 5584 5592 5603 5607 5613 5628 5647 5666 5683 5697 5707 5712 5723 5736 5748 5755 5768 5775 5784 5791 5799 5803 5806 5809
5604 5600 5596 5592 5587 5585 5581 5577 5572 5563 5561 5558 5560 5556 5559 5562 5562 5563 5566 5571 5576 5587 5595 5605 5617 5629 5640 5659 5676 5690 5702 5682 5704 5721 5732 5748 5757 5768 5778 5787 5794 5798 5802 5805
5599 5597 5592 5590 5582 5577 5574 5568 5561 5556 5553 5548 5547 5543 5545 5550 5554 5557 5559 5567 5578 5584 5587 5602 5616 5627 5640 5657 5672 5685 5692 5698 5670 5694 5709 5733 5750 5765 5776 5782 5787 5795 5799 5800
5595 5590 5587 5585 5579 5575 5570 5562 5555 5549 5541 5536 5532 5531 5525 5528 5540 5549 5552 5561 5572 5582 5590 5603 5617 5630 5643 5656 5669 5674 5677 5677 5664 5691 5718 5732 5748 5763 5774 5776 5785 5790 5794 5796
5593 5588 5583 5577 5573 5570 5563 5554 5545 5539 5533 5526 5524 5519 5512 5512 5524 5534 5545 5555 5565 5576 5588 5604 5617 5631 5642 5651 5664 5672 5682 5690 5697 5704 5721 5738 5749 5763 5770 5775 5779 5785 5790 5792
5590 5585 5578 5572 5568 5564 5556 5549 5538 5532 5528 5519 5515 5511 5507 5505 5515 5528 5539 5552 5566 5574 5584 5605 5619 5631 5640 5656 5666 5682 5681 5675 5696 5710 5728 5741 5749 5760 5768 5770 5776 5783 5784 5785
5588 5582 5576 5570 5564 5558 5553 5545 5538 5531 5524 5517 5512 5506 5502 5501 5510 5526 5540 5554 5566 5578 5591 5603 5619 5633 5646 5655 5666 5678 5687 5689 5701 5718 5731 5740 5749 5757 5763 5769 5774 5775 5779 5780
5587 5582 5576 5572 5564 5560 5552 5544 5538 5533 5528 5519 5513 5507 5506 5505 5517 5533 5548 5560 5574 5583 5597 5609 5622 5638 5653 5663 5669 5681 5684 5694 5710 5721 5731 5740 5748 5755 5762 5765 5768 5772 5773 5775
5583 5578 5575 5572 5565 5557 5555 5548 5540 5534 5529 5523 5517 5513 5515 5519 5529 5545 5559 5570 5569 5592 5605 5616 5629 5642 5652 5656 5667 5683 5689 5704 5713 5723 5732 5741 5747 5751 5755 5761 5766 5767 5768 5768
5585 5579 5575 5572 5567 5560 5556 5551 5546 5540 5537 5535 5535 5531 5534 5540 5552 5564 5576 5581 5589 5602 5615 5625 5630 5644 5651 5665 5670 5685 5691 5704 5714 5721 5731 5737 5744 5751 5756 5761 5762 5761 5761 5763
5583 5580 5577 5573 5570 5563 5559 5555 5553 5549 5547 5549 5545 5548 5545 5563 5570 5577 5582 5589 5602 5610 5619 5629 5640 5647 5653 5665 5673 5684 5698 5710 5718 5726 5734 5740 5746 5749 5752 5756 5755 5756 5756 5758
5584 5581 5577 5574 5571 5565 5561 5561 5560 5560 5559 5562 5559 5560 5571 5579 5585 5589 5597 5603 5612 5605 5630 5627 5641 5651 5663 5673 5682 5692 5702 5710 5718 5725 5731 5735 5739 5743 5746 5748 5749 5751 5753 5753
5584 5581 5578 5574 5571 5566 5564 5566 5566 5568 5569 5572 5574 5575 5583 5589 5597 5600 5605 5611 5618 5624 5632 5640 5649 5658 5669 5679 5688 5696 5704 5712 5719 5724 5729 5733 5737 5738 5740 5743 5746 5747 5749 5747